Theta_e
349 348 348 347 347 347 347 347 347 347 349 350 350 350 351 352 352 350 350 349 348 346 344 342 342 341 339 337 338 337 337 336 336 334 333 334 332 332 331 330 328 328
349 349 349 349 348 348 348 348 348 348 348 350 350 351 351 351 351 350 348 348 348 346 345 343 342 341 338 337 337 336 335 336 335 338 333 333 333 331 331 330 331 328
349 348 348 347 348 348 348 349 349 348 348 349 351 350 351 351 350 350 348 348 347 346 345 344 342 341 339 337 336 336 336 335 334 336 335 333 333 331 331 331 330 329
349 349 348 348 348 348 349 349 349 349 349 348 349 350 351 351 350 349 348 351 346 345 344 344 342 341 339 337 336 336 336 335 336 335 335 334 334 332 331 331 332 330
350 349 349 349 349 349 350 349 349 349 348 349 349 350 350 349 349 348 347 347 346 345 344 343 342 340 338 337 336 335 335 335 335 334 334 333 333 333 331 332 330 329
350 350 350 350 349 349 349 349 350 349 349 348 349 350 349 349 348 348 347 347 346 345 344 343 342 340 336 335 335 335 335 335 334 334 333 333 333 333 333 331 330 329
350 350 350 351 350 350 349 349 350 350 350 350 350 349 349 348 348 348 347 347 346 346 344 343 342 340 337 335 334 334 334 335 333 333 333 333 333 332 333 331 330 329
350 351 351 351 350 350 350 350 350 350 350 350 348 349 349 348 348 348 347 347 346 345 345 344 343 341 338 335 334 333 333 334 333 333 333 332 331 331 331 332 331 329
350 350 351 351 350 351 350 350 351 351 351 350 349 349 349 349 348 347 347 347 346 345 345 344 342 341 339 336 334 333 333 333 334 333 332 332 331 331 330 331 330 330
350 350 351 351 350 351 351 351 351 351 351 350 350 349 348 349 348 348 347 346 345 345 344 344 342 341 339 337 335 334 333 333 333 333 332 332 332 331 330 330 330 330
350 350 350 350 351 351 351 352 352 352 351 350 350 349 349 348 348 348 347 346 345 345 344 343 342 341 339 337 336 335 334 333 333 333 332 332 332 332 335 331 331 331
351 351 350 350 351 351 352 352 352 352 351 351 350 349 349 349 348 347 347 346 346 345 345 344 343 341 339 338 337 336 335 333 333 333 333 332 332 331 333 333 332 331
351 351 352 351 352 352 353 353 353 352 352 351 351 350 349 348 348 347 347 346 346 346 345 344 343 341 339 338 337 336 335 334 333 332 332 332 332 332 332 333 333 332
352 353 353 353 353 353 353 353 353 353 352 351 351 350 350 349 348 348 347 347 346 345 345 344 343 341 340 338 337 337 336 335 334 333 332 332 332 332 332 332 333 333
352 353 354 354 354 353 353 353 353 353 353 352 351 350 350 350 350 349 347 346 345 345 345 344 343 342 341 339 338 337 336 336 335 334 333 333 332 332 332 333 333 332
353 353 354 354 354 353 353 353 353 353 353 352 351 351 350 350 350 349 348 347 345 344 344 344 343 342 336 328 331 338 337 336 336 335 334 333 333 332 332 333 333 333
353 353 354 353 354 354 353 353 353 353 352 352 351 351 350 349 349 348 348 348 346 345 343 343 344 342 329 326 327 331 337 336 335 335 334 334 333 333 332 333 334 334
353 353 353 353 354 353 353 353 353 352 352 351 350 350 350 350 349 348 348 348 347 346 344 343 343 332 327 325 326 327 331 338 336 335 335 334 334 334 334 333 333 333
353 353 353 353 353 354 354 353 352 352 351 351 350 350 350 349 349 348 348 348 347 346 345 345 344 331 325 324 325 325 327 333 337 336 336 335 335 335 334 334 334 333
353 353 353 353 354 354 354 353 352 351 351 351 351 350 349 349 349 348 348 347 347 346 346 346 344 330 323 321 322 323 325 330 338 337 337 337 336 335 335 334 334 333
353 353 353 353 353 353 353 352 352 352 351 351 350 350 349 348 348 348 348 348 348 348 347 346 346 328 320 319 319 320 323 326 338 338 337 337 337 336 335 335 334 334
353 353 353 353 353 353 352 352 352 351 351 351 350 350 350 350 349 349 348 347 348 348 347 345 347 324 319 318 318 319 322 331 336 337 337 337 336 336 336 335 335 334
354 353 353 353 353 352 352 352 351 351 351 352 350 349 349 348 349 349 349 348 347 347 346 346 345 323 317 316 317 318 321 333 335 336 337 336 335 336 335 334 335 334
354 353 353 352 352 352 352 352 352 353 352 352 350 349 348 349 349 349 349 349 348 347 347 346 344 322 315 314 316 316 322 334 335 335 335 335 335 334 333 334 336 342
354 354 353 353 352 352 352 352 352 352 353 352 351 351 350 350 349 348 348 348 348 348 341 344 343 323 313 315 315 315 323 335 335 335 334 334 334 332 333 333 333 340
353 353 353 353 352 352 353 353 353 353 352 352 351 351 350 350 349 348 348 348 348 347 345 345 341 328 320 313 314 313 318 336 336 335 334 334 334 332 331 330 332 335
Wind_Speed
14 12 12 11 11 10 10 10 10 10 10 9 9 10 10 10 8 10 10 9 9 9 8 8 7 7 6 6 6 6 6 8 7 6 7 7 6 6 6 5 4 5
15 14 12 11 10 9 9 10 10 11 11 11 10 9 8 8 9 10 10 10 9 10 9 9 8 8 7 7 7 7 7 6 7 5 7 7 7 6 6 5 5 4
15 14 14 14 13 13 12 10 10 10 10 11 10 8 8 8 9 9 10 10 10 10 10 9 9 8 8 7 7 7 7 7 7 6 6 7 6 6 6 5 4 5
16 16 15 15 14 13 11 10 10 9 9 9 10 9 9 8 9 11 10 11 10 10 10 9 10 9 8 8 8 7 8 8 8 7 7 6 6 6 6 5 4 4
17 16 14 14 13 12 11 11 12 11 11 11 10 9 9 9 10 10 10 10 10 10 9 10 9 9 8 8 8 8 8 8 7 7 7 7 6 6 6 6 5 5
15 15 15 14 14 13 12 13 13 12 11 10 11 10 10 10 11 11 12 12 10 11 10 10 10 9 9 8 8 9 9 8 8 7 8 8 7 6 5 6 6 5
16 14 15 13 13 13 13 14 13 12 12 11 9 10 10 11 11 12 12 12 12 11 11 11 10 10 8 8 8 9 9 9 8 8 9 8 6 7 6 6 6 6
16 14 14 13 14 14 14 14 13 12 12 10 11 12 11 12 13 11 11 12 12 12 12 11 11 10 9 9 9 9 9 7 8 9 10 9 7 8 7 6 5 6
15 15 15 15 16 14 15 15 14 13 12 12 12 11 11 12 12 12 12 12 12 12 12 11 11 10 9 10 10 11 11 9 9 10 10 10 9 9 7 6 6 7
16 15 16 16 17 15 17 16 14 13 12 13 13 11 12 11 11 12 11 12 13 12 12 12 11 11 10 10 11 11 11 11 10 10 10 10 10 8 7 7 8 7
16 16 16 17 18 15 17 16 15 14 12 14 13 12 12 11 10 10 11 12 13 14 13 12 12 11 11 11 10 10 11 11 10 9 9 9 8 7 8 9 9 9
17 16 18 19 18 16 17 16 15 14 14 13 13 14 13 12 12 11 12 13 13 13 12 12 11 12 12 12 11 11 10 10 9 9 8 8 7 7 8 8 9 9
18 18 17 17 17 16 14 13 14 15 14 14 13 13 13 13 12 13 12 13 13 11 12 12 12 11 11 11 11 11 11 11 9 8 8 8 7 8 7 8 8 8
18 17 16 16 15 14 14 14 14 13 14 13 12 13 14 14 14 14 12 11 11 11 11 10 11 11 11 11 11 11 10 10 9 9 8 8 7 7 7 8 8 9
16 14 14 14 14 14 14 14 14 14 13 12 12 13 12 13 12 12 11 11 11 11 11 10 11 12 11 12 12 11 10 9 9 9 9 9 8 8 7 8 8 9
15 14 14 14 14 15 15 15 14 13 13 13 13 13 12 11 11 11 12 13 12 11 11 10 11 10 13 18 15 11 10 9 8 8 9 8 8 8 8 8 10 9
15 15 15 15 16 15 14 14 14 13 12 13 13 12 13 12 12 12 13 12 13 12 12 12 11 11 16 16 17 17 11 9 9 8 8 8 8 9 10 10 8 8
16 16 16 16 15 16 15 14 13 13 13 13 12 13 12 11 12 13 13 12 11 12 13 13 12 14 16 16 17 17 15 11 8 8 8 9 9 10 9 8 8 8
15 16 17 16 16 16 14 13 14 14 14 13 14 13 11 12 14 13 14 13 13 13 14 13 12 13 15 16 16 17 18 14 9 10 10 10 10 10 10 9 8 7
15 16 17 17 16 15 14 14 15 16 15 13 12 10 12 14 13 15 14 13 13 13 13 12 12 12 16 16 17 19 19 16 11 11 10 10 10 10 9 9 10 9
16 16 17 16 15 15 15 15 16 15 14 13 12 13 14 15 15 15 14 14 14 13 12 11 11 13 16 18 19 20 20 17 12 10 9 9 10 10 10 10 9 8
17 17 16 15 15 15 16 16 16 16 15 13 12 12 13 12 12 13 14 13 13 13 12 12 9 16 18 19 20 20 21 13 11 11 10 9 8 8 10 9 8 8
17 17 17 16 15 16 17 17 16 15 14 12 14 14 14 14 14 14 12 13 14 13 13 12 8 14 19 20 20 22 16 11 11 10 10 9 9 9 7 6 6 7
18 18 17 16 15 17 18 16 15 13 15 14 16 15 15 15 13 12 12 13 13 13 14 11 8 13 20 21 22 22 18 13 11 9 9 9 8 5 5 6 7 13
18 18 17 17 17 18 16 16 16 16 14 13 14 13 14 12 12 12 12 11 12 13 14 14 9 12 20 21 22 22 18 11 10 9 10 9 7 5 5 6 5 8
15 17 17 17 18 17 16 17 15 12 13 14 13 12 12 12 12 12 13 12 11 11 11 12 11 10 15 21 22 21 21 13 9 9 10 10 8 7 6 4 5 5
Wind_Direction
196 193 195 196 202 201 197 197 200 200 201 197 198 199 197 197 181 186 189 188 192 192 194 196 194 189 191 189 188 189 191 195 196 193 196 195 202 194 197 200 191 191
196 193 193 195 200 199 199 199 201 201 200 199 201 197 197 182 189 184 186 189 192 197 196 198 198 192 189 188 189 190 198 194 200 191 193 197 205 196 206 199 199 200
196 195 192 193 196 197 197 197 200 203 202 203 200 194 190 187 186 189 188 187 191 196 199 200 200 197 191 190 188 193 197 198 202 194 193 200 200 197 211 196 200 192
198 196 195 196 195 195 194 192 198 202 202 200 201 195 188 188 188 190 190 189 191 195 197 199 203 201 194 192 188 198 201 203 203 189 196 202 203 198 206 198 198 195
196 197 198 198 197 193 190 195 197 198 199 201 196 192 189 186 189 192 192 194 193 195 194 197 200 201 196 194 191 199 203 206 205 195 196 203 203 194 208 196 201 197
199 197 196 196 196 190 192 197 200 198 199 196 198 192 193 189 190 192 192 194 196 197 196 197 197 198 194 195 193 203 202 205 204 195 201 205 203 201 201 200 202 199
198 197 198 197 197 196 196 198 200 199 199 200 191 198 191 193 195 196 194 196 196 199 199 198 197 198 195 193 196 203 205 205 197 196 204 209 200 204 207 198 201 204
198 196 196 196 198 197 199 199 200 200 199 194 197 201 193 196 197 196 196 195 198 201 201 200 199 199 194 194 199 202 206 202 200 198 205 208 200 206 203 202 191 204
196 196 195 197 198 200 202 200 200 200 195 197 199 199 198 199 197 196 196 196 200 202 202 203 201 199 196 197 202 203 204 205 202 201 203 205 205 209 201 192 198 208
198 198 196 198 200 202 203 202 200 199 194 198 199 196 198 201 197 196 194 197 201 202 203 203 201 200 200 201 204 204 207 207 204 204 206 208 206 202 195 194 207 209
200 197 199 201 203 203 204 201 201 198 196 199 196 198 198 195 198 195 197 199 203 203 203 203 203 199 201 205 207 207 209 208 206 205 207 207 204 198 195 199 206 213
199 199 202 202 203 205 204 202 201 200 198 199 196 198 196 196 196 196 200 204 207 205 203 203 201 202 204 205 205 207 209 211 208 205 206 203 201 196 199 200 206 211
200 202 201 202 203 204 203 202 203 202 199 200 196 197 196 197 199 200 203 205 208 204 205 203 203 203 204 205 206 207 208 208 207 205 205 206 205 202 202 202 200 206
202 201 200 201 202 202 202 203 205 204 203 201 194 198 200 199 199 201 203 204 206 207 208 202 203 204 204 206 206 206 206 208 205 201 203 208 209 208 205 205 201 206
199 198 200 200 199 200 202 203 204 204 203 199 198 201 201 201 200 199 199 204 206 206 205 203 205 207 205 204 203 204 204 206 202 202 202 205 210 211 208 207 205 210
194 195 197 197 199 201 203 202 202 203 201 201 202 200 199 197 197 197 201 205 204 205 204 205 210 209 209 202 199 198 199 202 199 202 202 205 207 209 212 211 214 214
192 196 194 197 200 201 201 201 202 200 201 203 203 199 198 196 195 199 203 205 206 203 205 210 213 213 204 197 197 195 193 198 199 201 202 204 206 208 213 212 217 216
194 193 195 199 197 200 200 200 199 199 202 203 201 199 199 195 198 202 203 205 206 206 208 212 216 210 195 194 190 191 193 197 198 200 202 205 208 212 216 211 211 213
193 193 197 198 198 198 197 196 197 200 202 200 201 200 193 198 204 200 205 204 204 206 212 214 218 200 192 187 184 187 194 198 200 203 203 208 209 211 216 209 206 208
193 196 199 200 197 195 193 195 197 203 202 200 197 191 197 204 203 205 206 204 204 207 213 214 215 195 187 178 180 186 195 199 207 203 208 209 209 210 211 208 208 203
194 198 201 199 196 194 193 197 200 202 199 197 193 196 200 203 203 206 208 207 206 208 211 211 217 184 174 176 180 187 197 199 210 207 208 211 212 211 209 211 202 198
194 197 200 197 195 194 196 199 200 199 197 194 195 201 205 204 206 208 209 207 207 206 209 215 205 169 172 174 180 190 195 199 208 210 210 210 210 208 214 208 198 189
195 196 197 195 194 195 199 201 199 198 197 192 198 202 201 202 205 205 205 205 207 205 207 213 193 171 169 175 182 191 188 201 204 211 212 210 212 215 204 193 192 191
195 195 195 194 193 198 201 202 200 198 199 194 198 198 202 205 202 203 204 207 204 204 205 203 187 173 172 177 184 187 186 195 201 201 212 214 217 194 183 191 198 197
194 193 194 193 196 200 198 198 200 201 199 194 200 201 205 202 200 204 207 204 204 204 194 192 183 178 179 178 185 187 188 194 189 197 204 212 200 192 190 191 198 198
194 194 195 195 198 198 196 200 199 196 195 196 200 200 202 200 202 205 204 203 198 196 187 189 176 171 183 180 186 185 187 187 188 189 202 204 194 180 181 194 189 197